AFL707 UUEE-LXGB

Flight info

Callsign AFL707
Flight time N/A
Altitude 32000
Route LIDRI3H LIDRI T781 REPNU N858 VEPIS Y219 LAPKI N869 OSMUS M984 LETKI/N0455F320 M984 KOTEK/N0415F240 M984 IBEKA/N0455F320 DCT MIKOV DCT LIMRA DCT DETSA/N0457F330 DCT OSKOR DCT VAMTU DCT DIVKO DCT NILDU/N0456F350 N975 BISBA DCT RODRA M985 ASTRO/N0401F230 M985 PIMOS
Aircraft A321/M-SDE3FGHIRWY/LB1

Departure

Time N/A
Airport Sheremetyevo International Airport (UUEE)

Arrival

Time 2026-05-06 17:58
Airport Gibraltar Airport (LXGB)
Time Latitude Longitude Altitude Speed Heading
2026-05-06 16:36 41.62587 2.76793 31916 ft 392 kts 234°
2026-05-06 16:36 41.59375 2.70905 31916 ft 392 kts 234°
2026-05-06 16:37 41.56166 2.65027 31920 ft 392 kts 234°
2026-05-06 16:37 41.52960 2.59152 31920 ft 391 kts 234°
2026-05-06 16:38 41.49745 2.53288 31917 ft 391 kts 234°
2026-05-06 16:38 41.46550 2.47475 31923 ft 391 kts 234°
2026-05-06 16:39 41.43353 2.41663 31919 ft 391 kts 234°
2026-05-06 16:39 41.40124 2.35806 31924 ft 390 kts 234°
2026-05-06 16:40 41.36905 2.29981 31941 ft 390 kts 234°
2026-05-06 16:40 41.33822 2.24398 31943 ft 390 kts 234°
2026-05-06 16:41 41.30606 2.18596 31944 ft 390 kts 234°
2026-05-06 16:41 41.27481 2.12971 31948 ft 395 kts 234°
2026-05-06 16:42 41.24208 2.07087 31946 ft 396 kts 234°
2026-05-06 16:42 41.20928 2.01215 31946 ft 396 kts 234°
2026-05-06 16:43 41.17653 1.95342 31941 ft 395 kts 234°
2026-05-06 16:43 41.14380 1.89485 31939 ft 395 kts 234°
2026-05-06 16:44 41.11106 1.83637 31940 ft 395 kts 234°
2026-05-06 16:44 41.07825 1.77795 31936 ft 395 kts 234°
2026-05-06 16:45 41.04613 1.72248 31932 ft 395 kts 230°
2026-05-06 16:45 41.00925 1.66843 31930 ft 395 kts 230°
2026-05-06 16:46 40.97235 1.61445 31933 ft 395 kts 230°
2026-05-06 16:46 40.93544 1.56050 31931 ft 395 kts 230°
2026-05-06 16:47 40.89842 1.50667 31933 ft 395 kts 230°
2026-05-06 16:47 40.86170 1.45333 31927 ft 395 kts 230°
2026-05-06 16:48 40.82449 1.39923 31925 ft 395 kts 230°
2026-05-06 16:48 40.78757 1.34563 31923 ft 395 kts 230°
2026-05-06 16:49 40.75078 1.29248 31918 ft 395 kts 230°
2026-05-06 16:49 40.71370 1.23908 31916 ft 395 kts 230°
2026-05-06 16:50 40.68895 1.20339 31912 ft 394 kts 230°
2026-05-06 16:50 40.64172 1.13525 31914 ft 394 kts 230°
2026-05-06 16:51 40.60469 1.08181 31911 ft 395 kts 230°
2026-05-06 16:51 40.56761 1.02850 31917 ft 395 kts 230°
2026-05-06 16:52 40.53041 0.97525 31915 ft 395 kts 230°
2026-05-06 16:52 40.49305 0.92192 31917 ft 396 kts 230°
2026-05-06 16:53 40.45595 0.86909 31921 ft 396 kts 230°
2026-05-06 16:53 40.41833 0.81555 31926 ft 396 kts 230°
2026-05-06 16:54 40.38094 0.76244 31924 ft 397 kts 230°
2026-05-06 16:54 40.34371 0.70961 31920 ft 397 kts 230°
2026-05-06 16:55 40.30599 0.65611 31917 ft 397 kts 230°
2026-05-06 16:55 40.26861 0.60335 31914 ft 398 kts 230°
2026-05-06 16:56 40.23083 0.55009 31914 ft 399 kts 230°
2026-05-06 16:56 40.21190 0.52341 31785 ft 401 kts 230°
2026-05-06 16:56 40.19293 0.49673 31273 ft 397 kts 230°
2026-05-06 16:56 40.17417 0.47041 30778 ft 396 kts 230°
2026-05-06 16:57 40.15543 0.44411 30293 ft 396 kts 230°
2026-05-06 16:57 40.13662 0.41766 29984 ft 398 kts 230°
2026-05-06 16:57 40.11766 0.39100 29933 ft 402 kts 230°
2026-05-06 16:58 40.07937 0.33726 29948 ft 405 kts 230°
2026-05-06 16:58 40.04231 0.28540 29956 ft 407 kts 230°
2026-05-06 16:59 40.00360 0.23147 29952 ft 407 kts 230°
2026-05-06 16:59 39.96486 0.17747 29946 ft 408 kts 230°
2026-05-06 17:00 39.92602 0.12345 29942 ft 408 kts 230°
2026-05-06 17:00 39.89371 0.07854 29929 ft 409 kts 230°
2026-05-06 17:02 39.76734 -0.09661 29942 ft 409 kts 230°
2026-05-06 17:02 39.72837 -0.15034 29943 ft 409 kts 230°
2026-05-06 17:03 39.68940 -0.20410 29941 ft 409 kts 230°
2026-05-06 17:03 39.65034 -0.25774 29938 ft 409 kts 230°
2026-05-06 17:04 39.61278 -0.30923 29937 ft 408 kts 230°
2026-05-06 17:04 39.57395 -0.36242 29936 ft 408 kts 230°
2026-05-06 17:05 39.53494 -0.41582 29937 ft 408 kts 230°
2026-05-06 17:05 39.49584 -0.46915 29937 ft 409 kts 230°
2026-05-06 17:06 39.46038 -0.52612 29945 ft 406 kts 236°
2026-05-06 17:06 39.42636 -0.58427 29946 ft 406 kts 236°
2026-05-06 17:07 39.39228 -0.64243 29945 ft 406 kts 236°
2026-05-06 17:07 39.35816 -0.70055 29938 ft 406 kts 236°
2026-05-06 17:08 39.32399 -0.75863 29931 ft 406 kts 236°
2026-05-06 17:08 39.28971 -0.81660 29925 ft 406 kts 236°
2026-05-06 17:09 39.25549 -0.87458 29924 ft 406 kts 236°
2026-05-06 17:09 39.22126 -0.93246 29922 ft 406 kts 236°
2026-05-06 17:10 39.18693 -0.99029 29917 ft 407 kts 236°
2026-05-06 17:10 39.15252 -1.04823 29926 ft 407 kts 236°
2026-05-06 17:11 39.11814 -1.10609 29918 ft 407 kts 236°
2026-05-06 17:11 39.08371 -1.16386 29917 ft 407 kts 236°
2026-05-06 17:12 39.05498 -1.21193 29923 ft 407 kts 236°
2026-05-06 17:12 39.02016 -1.27013 29909 ft 408 kts 236°
2026-05-06 17:13 38.98577 -1.32756 29910 ft 408 kts 236°
2026-05-06 17:13 38.95082 -1.38570 29907 ft 408 kts 236°
2026-05-06 17:14 38.91612 -1.44336 29913 ft 409 kts 236°
2026-05-06 17:14 38.88125 -1.50113 29906 ft 409 kts 236°
2026-05-06 17:15 38.84636 -1.55884 29906 ft 409 kts 236°
2026-05-06 17:15 38.81148 -1.61663 29902 ft 410 kts 236°
2026-05-06 17:16 38.77649 -1.67444 29905 ft 411 kts 236°
2026-05-06 17:16 38.74158 -1.73187 29902 ft 411 kts 235°
2026-05-06 17:17 38.70643 -1.78962 29903 ft 411 kts 235°
2026-05-06 17:17 38.67102 -1.84782 29901 ft 412 kts 235°
2026-05-06 17:18 38.63610 -1.90497 29899 ft 412 kts 235°
2026-05-06 17:18 38.60069 -1.96295 29899 ft 412 kts 235°
2026-05-06 17:19 38.56537 -2.02075 29899 ft 413 kts 235°
2026-05-06 17:19 38.53043 -2.07765 29902 ft 414 kts 235°
2026-05-06 17:20 38.49479 -2.13551 29906 ft 415 kts 235°
2026-05-06 17:20 38.45918 -2.19347 29913 ft 415 kts 235°
2026-05-06 17:21 38.42348 -2.25147 29911 ft 416 kts 234°
2026-05-06 17:21 38.38772 -2.30928 29902 ft 415 kts 234°
2026-05-06 17:22 38.35243 -2.36409 29901 ft 418 kts 230°
2026-05-06 17:22 38.31267 -2.41746 29898 ft 418 kts 230°
2026-05-06 17:23 38.27385 -2.46951 29892 ft 418 kts 230°
2026-05-06 17:23 38.23408 -2.52287 29893 ft 419 kts 230°
2026-05-06 17:24 38.19401 -2.57657 29892 ft 419 kts 230°
2026-05-06 17:24 38.15376 -2.63035 29888 ft 420 kts 230°
2026-05-06 17:25 38.11347 -2.68411 29882 ft 419 kts 230°
2026-05-06 17:25 38.07322 -2.73771 29878 ft 420 kts 229°
2026-05-06 17:26 38.03290 -2.79122 29881 ft 420 kts 229°
2026-05-06 17:26 37.99265 -2.84463 29872 ft 420 kts 229°
2026-05-06 17:27 37.95213 -2.89828 29867 ft 420 kts 229°
2026-05-06 17:27 37.91166 -2.95178 29864 ft 420 kts 229°
2026-05-06 17:28 37.87123 -3.00520 29863 ft 420 kts 229°
2026-05-06 17:28 37.83069 -3.05865 29859 ft 420 kts 229°
2026-05-06 17:29 37.79021 -3.11191 29857 ft 420 kts 229°
2026-05-06 17:29 37.74968 -3.16514 29856 ft 421 kts 229°
2026-05-06 17:30 37.70937 -3.21803 29852 ft 420 kts 229°
2026-05-06 17:30 37.66875 -3.27122 29853 ft 421 kts 229°
2026-05-06 17:31 37.62810 -3.32431 29858 ft 421 kts 229°
2026-05-06 17:31 37.58768 -3.37702 29854 ft 421 kts 228°
2026-05-06 17:32 37.54697 -3.43000 29862 ft 421 kts 228°
2026-05-06 17:32 37.50628 -3.48302 29860 ft 421 kts 228°
2026-05-06 17:33 37.46552 -3.53595 29868 ft 421 kts 228°
2026-05-06 17:33 37.42473 -3.58872 29871 ft 421 kts 228°
2026-05-06 17:34 37.38384 -3.64153 29877 ft 421 kts 228°
2026-05-06 17:34 37.34303 -3.69440 29285 ft 418 kts 228°
2026-05-06 17:34 37.32312 -3.72008 28967 ft 404 kts 228°
2026-05-06 17:35 37.30365 -3.74511 28692 ft 398 kts 228°
2026-05-06 17:35 37.28594 -3.76792 28433 ft 396 kts 228°
2026-05-06 17:35 37.26673 -3.79268 28169 ft 394 kts 228°
2026-05-06 17:36 37.22864 -3.84166 27723 ft 388 kts 227°
2026-05-06 17:36 37.20982 -3.86583 27459 ft 386 kts 227°
2026-05-06 17:36 37.19107 -3.88990 27196 ft 385 kts 227°
2026-05-06 17:36 37.17236 -3.91390 26938 ft 384 kts 227°
2026-05-06 17:37 37.15510 -3.93604 26688 ft 383 kts 227°
2026-05-06 17:37 37.13647 -3.95994 26442 ft 383 kts 227°
2026-05-06 17:37 37.11784 -3.98378 26188 ft 382 kts 227°
2026-05-06 17:37 37.09928 -4.00750 25927 ft 381 kts 227°
2026-05-06 17:38 37.08083 -4.03105 25356 ft 377 kts 227°
2026-05-06 17:38 37.06250 -4.05446 24746 ft 375 kts 227°
2026-05-06 17:38 37.04430 -4.07770 24084 ft 374 kts 227°
2026-05-06 17:38 37.02609 -4.10093 23473 ft 372 kts 227°
2026-05-06 17:39 37.00800 -4.12396 22738 ft 370 kts 226°
2026-05-06 17:39 36.98996 -4.14684 22030 ft 368 kts 226°
2026-05-06 17:39 36.97200 -4.16963 21323 ft 366 kts 226°
2026-05-06 17:39 36.95418 -4.19227 20636 ft 365 kts 226°
2026-05-06 17:40 36.93661 -4.21464 19971 ft 363 kts 226°
2026-05-06 17:40 36.91894 -4.23709 19319 ft 362 kts 226°
2026-05-06 17:40 36.90126 -4.25953 18712 ft 361 kts 226°
2026-05-06 17:40 36.88367 -4.28187 18111 ft 361 kts 226°
2026-05-06 17:41 36.86745 -4.30248 17487 ft 360 kts 226°
2026-05-06 17:41 36.84997 -4.32462 16886 ft 357 kts 226°
2026-05-06 17:41 36.83254 -4.34665 16314 ft 355 kts 225°
2026-05-06 17:41 36.81478 -4.36788 15759 ft 353 kts 220°
2026-05-06 17:42 36.79470 -4.38539 15235 ft 351 kts 213°
2026-05-06 17:42 36.77417 -4.40162 14722 ft 349 kts 213°
2026-05-06 17:42 36.75374 -4.41782 14217 ft 347 kts 213°
2026-05-06 17:42 36.73346 -4.43395 13713 ft 344 kts 213°
2026-05-06 17:43 36.71331 -4.44999 13171 ft 342 kts 213°
2026-05-06 17:43 36.69330 -4.46587 12614 ft 340 kts 213°
2026-05-06 17:43 36.67336 -4.48167 12063 ft 339 kts 213°
2026-05-06 17:43 36.65351 -4.49741 11519 ft 337 kts 213°
2026-05-06 17:44 36.63378 -4.51309 10997 ft 336 kts 213°
2026-05-06 17:44 36.61414 -4.52865 10478 ft 334 kts 213°
2026-05-06 17:44 36.59463 -4.54410 9971 ft 332 kts 213°
2026-05-06 17:44 36.57534 -4.55937 9688 ft 319 kts 213°
2026-05-06 17:45 36.55750 -4.57348 9478 ft 291 kts 213°
2026-05-06 17:45 36.54069 -4.58676 9006 ft 284 kts 213°
2026-05-06 17:45 36.52411 -4.59988 8614 ft 281 kts 213°
2026-05-06 17:45 36.50760 -4.61298 8182 ft 281 kts 213°
2026-05-06 17:46 36.49116 -4.62600 7736 ft 280 kts 213°
2026-05-06 17:46 36.47467 -4.63901 7297 ft 281 kts 212°
2026-05-06 17:46 36.45816 -4.65198 6855 ft 281 kts 212°
2026-05-06 17:46 36.44163 -4.66495 6407 ft 282 kts 212°
2026-05-06 17:47 36.42502 -4.67800 5964 ft 282 kts 212°
2026-05-06 17:47 36.40872 -4.69081 5557 ft 280 kts 212°
2026-05-06 17:47 36.39233 -4.70370 5179 ft 278 kts 212°
2026-05-06 17:47 36.37590 -4.71667 4780 ft 275 kts 212°
2026-05-06 17:48 36.36002 -4.72921 4405 ft 273 kts 212°
2026-05-06 17:48 36.34416 -4.74172 4179 ft 269 kts 212°
2026-05-06 17:48 36.32835 -4.75415 4056 ft 270 kts 212°
2026-05-06 17:48 36.31249 -4.76662 3949 ft 269 kts 213°
2026-05-06 17:49 36.29668 -4.77905 3955 ft 269 kts 213°
2026-05-06 17:49 36.28091 -4.79146 3956 ft 269 kts 212°
2026-05-06 17:49 36.26548 -4.80460 3932 ft 269 kts 223°
2026-05-06 17:49 36.25458 -4.82316 3803 ft 267 kts 248°
2026-05-06 17:50 36.24898 -4.84493 3684 ft 266 kts 254°
2026-05-06 17:50 36.24381 -4.86688 3555 ft 265 kts 254°
2026-05-06 17:50 36.23865 -4.88867 3437 ft 264 kts 254°
2026-05-06 17:50 36.23364 -4.90976 3312 ft 262 kts 254°
2026-05-06 17:51 36.22852 -4.93133 3187 ft 258 kts 253°
2026-05-06 17:51 36.22355 -4.95213 3063 ft 245 kts 253°
2026-05-06 17:51 36.21882 -4.97192 2937 ft 235 kts 254°
2026-05-06 17:51 36.21423 -4.99116 2808 ft 232 kts 254°
2026-05-06 17:52 36.20967 -5.01023 2687 ft 230 kts 254°
2026-05-06 17:52 36.20515 -5.02915 2563 ft 228 kts 254°
2026-05-06 17:52 36.20068 -5.04784 2440 ft 226 kts 255°
2026-05-06 17:52 36.19627 -5.06631 2324 ft 227 kts 254°
2026-05-06 17:53 36.19175 -5.08522 2188 ft 225 kts 254°
2026-05-06 17:53 36.18732 -5.10369 2080 ft 224 kts 255°
2026-05-06 17:53 36.18313 -5.12112 1988 ft 222 kts 255°
2026-05-06 17:53 36.17872 -5.13949 1972 ft 223 kts 255°
2026-05-06 17:54 36.17440 -5.15731 1993 ft 213 kts 254°
2026-05-06 17:54 36.17022 -5.17447 1977 ft 205 kts 255°
2026-05-06 17:54 36.16617 -5.19126 1972 ft 203 kts 255°
2026-05-06 17:54 36.16225 -5.20746 1980 ft 184 kts 255°
2026-05-06 17:55 36.15883 -5.22160 1969 ft 163 kts 255°
2026-05-06 17:55 36.15566 -5.23478 1974 ft 157 kts 256°
2026-05-06 17:55 36.15448 -5.24794 1865 ft 148 kts 269°
2026-05-06 17:55 36.15407 -5.26033 1660 ft 142 kts 269°
2026-05-06 17:56 36.15366 -5.27245 1430 ft 139 kts 269°
2026-05-06 17:56 36.15326 -5.28437 1149 ft 140 kts 268°
2026-05-06 17:56 36.15305 -5.29647 807 ft 138 kts 268°
2026-05-06 17:56 36.15279 -5.30849 550 ft 141 kts 268°
2026-05-06 17:57 36.15229 -5.32044 372 ft 138 kts 265°
2026-05-06 17:57 36.15186 -5.33229 200 ft 137 kts 266°
2026-05-06 17:57 36.15143 -5.34383 34 ft 128 kts 268°
2026-05-06 17:57 36.15112 -5.35324 22 ft 56 kts 267°
2026-05-06 17:58 36.15105 -5.35485 21 ft 12 kts 264°
2026-05-06 17:58 36.15101 -5.35595 20 ft 14 kts 262°
2026-05-06 17:58 36.15095 -5.35657 19 ft 2 kts 349°
2026-05-06 17:58 36.15098 -5.35646 19 ft 2 kts 68°
2026-05-06 17:59 36.15101 -5.35595 20 ft 10 kts 88°
2026-05-06 17:59 36.15103 -5.35518 20 ft 16 kts 88°
2026-05-06 17:59 36.15110 -5.35340 22 ft 26 kts 87°
2026-05-06 17:59 36.15119 -5.35079 22 ft 35 kts 87°
2026-05-06 18:00 36.15127 -5.34757 24 ft 27 kts 87°
2026-05-06 18:00 36.15190 -5.34676 20 ft 11 kts 359°
2026-05-06 18:00 36.15261 -5.34708 19 ft 9 kts 341°
2026-05-06 18:00 36.15292 -5.34713 17 ft 0 kts 360°
2026-05-06 18:01 36.15302 -5.34714 17 ft 0 kts 358°